OPS 6391 (FLTSATCOM 1)

导读

OPS 6391,即FLTSATCOM 1,是美国于1978年2月9日发射的舰队通信卫星,隶属于美国海军FLTSATCOM舰队卫星通信系统。该卫星主要为美国海军提供多信道UHF通信服务,同时也支持美国空军轰炸机与导弹发射控制中心的机载通信需求,在美军全球军事通信体系中发挥了关键的战略中继作用,是冷战时期美国军用卫星通信体系的重要组成部分。

Basic Information
目录编号:
10669
目录名称:
OPS 6391 (FLTSATCOM 1)
国际标识:
1978-016A
轨道中心:
EARTH
卫星名称:
OPS 6391 (FLTSATCOM 1)
卫星全名:
--
卫星状态:
在轨 (已飞行17749 天)
发射日期:
1978-02-09 UTC
国别 :
美国 (US)
星等 :
--
This satellite is enrolled in the Space Conjunction Data Service (SCDS) and the current flight risk assessment level is: No High Risk
Orbit Information
数据来源 国际轨道数据 AOE轨道数据
星历时间 2026-09-13T23:54:39+0800
12小时前
查看轨道信息
2026-09-13T01:00:00+0800
1天前
查看轨道信息
半长轴 42524.814km 42524.785km
偏心率 0.0009661 0.0009557
轨道倾角 6.903° 6.905°
近地点辐角 275.902° 274.348°
升交点赤经 290.631° 290.639°
平近点角 97.536° 118.847°
近地点 36105.593km 36106.007km
远地点 36187.761km 36187.289km
周期 1454.532分钟 1454.531分钟
每日圈数 0.990009 0.99001
Detailed Information
使用方式:
暂无
2D Orbit Map
3D Orbit Map
Orbit Altitude Analysis Chart
Orbit Inclination Analysis Chart
Orbit Comprehensive Analysis Chart
View Comprehensive Chart
Miss Distance Evolution Trend with All Objects Subscribe to Flight Safety Assessment
Collision Probability Evolution Trend with All Objects Subscribe to Flight Safety Assessment